When you browse on this site, cookies collect data to enhance your experience and personalize the content and advertising you see.
Visit our Privacy Policy to learn more. By continuing to use the site, you agree to this use of cookies and data.
  • In Hungary
  • List of Countries
  • For 7 days
  • Water Temperature
  • Satellite Maps
  • Weather Map
  • News
  • Weather Widgets
  • user-avatar
    Login

    Hourly Weather Voyteli

    Today, 22 November, Thursday

    Time Temperature Precipitation Wind Pressure Humidity
    00:00 -3°C° 0 mm 1 mps 746 mmHg 81%
    01:00 -3°C° 0 mm 1 mps 746 mmHg 81%
    02:00 -3°C° 0 mm 1 mps 746 mmHg 80%
    03:00 -3°C° 0 mm 1 mps 745 mmHg 81%
    04:00 -4°C° 0 mm 1 mps 745 mmHg 82%
    05:00 -4°C° 0 mm 1 mps 745 mmHg 82%
    06:00 -4°C° 0 mm 1 mps 745 mmHg 83%
    07:00 -4°C° 0 mm 1 mps 744 mmHg 84%
    08:00 -4°C° 0 mm 1 mps 744 mmHg 85%
    09:00 -6°C° 0 mm 2 mps 744 mmHg 81%
    10:00 -5°C° 0 mm 2 mps 744 mmHg 77%
    11:00 -5°C° 0 mm 3 mps 744 mmHg 73%
    12:00 -5°C° 0 mm 3 mps 744 mmHg 72%
    13:00 -4°C° 0 mm 3 mps 744 mmHg 71%
    14:00 -4°C° 0 mm 3 mps 743 mmHg 69%
    15:00 -5°C° 0 mm 3 mps 743 mmHg 73%
    16:00 -5°C° 0 mm 3 mps 743 mmHg 76%
    17:00 -6°C° 0 mm 3 mps 743 mmHg 80%
    18:00 -6°C° 0 mm 3 mps 743 mmHg 82%
    19:00 -6°C° 0 mm 3 mps 743 mmHg 83%
    20:00 -6°C° 0 mm 3 mps 743 mmHg 85%
    21:00 -6°C° 0 mm 3 mps 743 mmHg 86%
    22:00 -6°C° 0 mm 3 mps 743 mmHg 88%
    23:00 -6°C° 0 mm 3 mps 743 mmHg 89%

    Tomorrow, 23 November, Friday

    Time Temperature Precipitation Wind Pressure Humidity
    00:00 -5°C° 0 mm 3 mps 743 mmHg 89%
    01:00 -4°C° 0 mm 2 mps 743 mmHg 89%
    02:00 -4°C° 0 mm 2 mps 744 mmHg 89%
    03:00 -4°C° 0 mm 2 mps 744 mmHg 89%
    04:00 -3°C° 0 mm 2 mps 744 mmHg 89%
    05:00 -3°C° 0 mm 2 mps 744 mmHg 89%
    06:00 -1°C° 0 mm 1 mps 744 mmHg 90%
    07:00 -1°C° 0 mm 1 mps 744 mmHg 90%
    08:00 -1°C° 0 mm 1 mps 745 mmHg 90%
    09:00 -1°C° 0 mm 1 mps 745 mmHg 88%
    10:00 0°C° 0 mm 1 mps 745 mmHg 86%
    11:00 0°C° 0 mm 1 mps 745 mmHg 84%
    12:00 0°C° 0 mm 1 mps 745 mmHg 82%
    13:00 +1°C° 0 mm 1 mps 745 mmHg 81%
    14:00 +1°C° 0 mm 1 mps 745 mmHg 80%
    15:00 0°C° 0 mm 1 mps 745 mmHg 82%
    16:00 -3°C° 0 mm 2 mps 745 mmHg 85%
    17:00 -3°C° 0 mm 2 mps 745 mmHg 87%
    18:00 -4°C° 0 mm 2 mps 744 mmHg 88%
    19:00 -4°C° 0 mm 2 mps 744 mmHg 89%
    20:00 -4°C° 0 mm 2 mps 744 mmHg 90%
    21:00 -5°C° 0 mm 2 mps 744 mmHg 89%
    22:00 -5°C° 0 mm 2 mps 743 mmHg 89%
    23:00 -5°C° 0 mm 2 mps 743 mmHg 88%

    Day after tomorrow, 24 November, Saturday

    Time Temperature Precipitation Wind Pressure Humidity
    00:00 -6°C° 0 mm 3 mps 742 mmHg 89%
    01:00 -6°C° 0 mm 3 mps 742 mmHg 89%
    02:00 -6°C° 0 mm 3 mps 742 mmHg 89%
    03:00 -6°C° 0 mm 3 mps 741 mmHg 89%
    04:00 -7°C° 0 mm 3 mps 740 mmHg 89%
    05:00 -7°C° 0 mm 3 mps 740 mmHg 88%
    06:00 -7°C° 0 mm 3 mps 739 mmHg 86%
    07:00 -7°C° 0 mm 3 mps 739 mmHg 83%
    08:00 -7°C° 0 mm 3 mps 738 mmHg 81%
    09:00 -6°C° 0 mm 3 mps 738 mmHg 76%
    10:00 -5°C° 0 mm 3 mps 738 mmHg 72%
    11:00 -4°C° 0 mm 3 mps 737 mmHg 67%
    12:00 -4°C° 0 mm 3 mps 737 mmHg 69%
    13:00 -4°C° 0 mm 3 mps 736 mmHg 71%
    14:00 -2°C° 0 mm 3 mps 736 mmHg 73%
    15:00 -2°C° 0 mm 3 mps 736 mmHg 77%
    16:00 -2°C° 0 mm 3 mps 735 mmHg 80%
    17:00 -2°C° 0 mm 3 mps 735 mmHg 84%
    18:00 -2°C° 0 mm 3 mps 735 mmHg 86%
    19:00 -2°C° 0 mm 2 mps 735 mmHg 88%
    20:00 -2°C° 0 mm 2 mps 735 mmHg 91%
    21:00 -2°C° 0 mm 2 mps 735 mmHg 92%
    22:00 -2°C° 0 mm 2 mps 735 mmHg 94%
    23:00 -2°C° 0 mm 2 mps 735 mmHg 95%

    25 November, Sunday

    Time Temperature Precipitation Wind Pressure Humidity
    00:00 -2°C° 0 mm 2 mps 735 mmHg 95%
    01:00 0°C° 0 mm 1 mps 735 mmHg 96%
    02:00 0°C° 0 mm 1 mps 735 mmHg 96%
    03:00 0°C° 0 mm 1 mps 735 mmHg 96%
    04:00 0°C° 0 mm 1 mps 735 mmHg 97%
    05:00 0°C° 0 mm 1 mps 735 mmHg 97%
    06:00 -2°C° 0 mm 2 mps 735 mmHg 96%
    07:00 -2°C° 0 mm 2 mps 735 mmHg 95%
    08:00 -2°C° 0 mm 2 mps 735 mmHg 94%
    09:00 -2°C° 0 mm 2 mps 735 mmHg 91%
    10:00 -2°C° 0 mm 2 mps 735 mmHg 88%
    11:00 -1°C° 0 mm 2 mps 736 mmHg 86%
    12:00 -2°C° 0 mm 3 mps 736 mmHg 84%
    13:00 -2°C° 0 mm 3 mps 736 mmHg 82%
    14:00 -2°C° 0 mm 3 mps 736 mmHg 81%
    15:00 -2°C° 0 mm 3 mps 736 mmHg 81%
    16:00 -4°C° 0 mm 3 mps 736 mmHg 82%
    17:00 -4°C° 0 mm 3 mps 736 mmHg 82%
    18:00 -4°C° 0 mm 3 mps 736 mmHg 82%
    19:00 -4°C° 0 mm 3 mps 736 mmHg 81%
    20:00 -3°C° 0 mm 2 mps 736 mmHg 81%
    21:00 -3°C° 0 mm 2 mps 737 mmHg 81%
    22:00 -3°C° 0 mm 2 mps 737 mmHg 82%
    23:00 -4°C° 0 mm 2 mps 737 mmHg 83%

    26 November, Monday

    Time Temperature Precipitation Wind Pressure Humidity
    00:00 -4°C° 0 mm 2 mps 737 mmHg 85%
    01:00 -4°C° 0 mm 2 mps 737 mmHg 87%
    02:00 -4°C° 0 mm 2 mps 737 mmHg 89%
    03:00 -5°C° 0 mm 2 mps 737 mmHg 89%
    04:00 -5°C° 0 mm 2 mps 737 mmHg 90%
    05:00 -5°C° 0 mm 2 mps 737 mmHg 90%
    06:00 -5°C° 0 mm 2 mps 737 mmHg 89%
    07:00 -5°C° 0 mm 2 mps 737 mmHg 89%
    08:00 -5°C° 0 mm 2 mps 737 mmHg 88%
    09:00 -5°C° 0 mm 2 mps 737 mmHg 83%
    10:00 -2°C° 0 mm 1 mps 737 mmHg 79%
    11:00 -2°C° 0 mm 1 mps 737 mmHg 74%
    12:00 -2°C° 0 mm 1 mps 737 mmHg 72%
    13:00 -1°C° 0 mm 1 mps 737 mmHg 70%
    14:00 -1°C° 0 mm 1 mps 736 mmHg 67%
    15:00 -2°C° 0 mm 1 mps 736 mmHg 71%
    16:00 -2°C° 0 mm 1 mps 736 mmHg 74%
    17:00 -3°C° 0 mm 1 mps 736 mmHg 78%
    18:00 -3°C° 0 mm 1 mps 736 mmHg 79%
    19:00 -3°C° 0 mm 1 mps 735 mmHg 79%
    20:00 -3°C° 0 mm 1 mps 735 mmHg 80%
    21:00 -3°C° 0 mm 1 mps 735 mmHg 80%
    22:00 -3°C° 0 mm 1 mps 735 mmHg 80%
    23:00 -3°C° 0 mm 1 mps 735 mmHg 80%

    27 November, Tuesday

    Time Temperature Precipitation Wind Pressure Humidity
    00:00 -3°C° 0 mm 1 mps 735 mmHg 81%
    01:00 -3°C° 0 mm 1 mps 735 mmHg 82%
    02:00 -3°C° 0 mm 1 mps 735 mmHg 82%
    03:00 -3°C° 0 mm 1 mps 735 mmHg 84%
    04:00 -3°C° 0 mm 1 mps 735 mmHg 85%
    05:00 -3°C° 0 mm 1 mps 735 mmHg 86%
    06:00 -3°C° 0 mm 1 mps 735 mmHg 88%
    07:00 -3°C° 0 mm 1 mps 735 mmHg 90%
    08:00 -3°C° 0 mm 1 mps 735 mmHg 91%
    09:00 -3°C° 0 mm 1 mps 736 mmHg 88%
    10:00 -2°C° 0 mm 1 mps 736 mmHg 85%
    11:00 -4°C° 0 mm 2 mps 737 mmHg 81%
    12:00 -4°C° 0 mm 2 mps 737 mmHg 79%
    13:00 -3°C° 0 mm 2 mps 737 mmHg 78%
    14:00 -3°C° 0 mm 2 mps 738 mmHg 76%
    15:00 -4°C° 0 mm 2 mps 738 mmHg 78%
    16:00 -4°C° 0 mm 2 mps 739 mmHg 80%
    17:00 -5°C° 0 mm 3 mps 739 mmHg 83%
    18:00 -6°C° 0 mm 3 mps 740 mmHg 83%
    19:00 -6°C° 0 mm 3 mps 740 mmHg 83%
    20:00 -7°C° 0 mm 3 mps 741 mmHg 83%
    21:00 -6°C° 0 mm 2 mps 742 mmHg 84%
    22:00 -6°C° 0 mm 2 mps 742 mmHg 85%
    23:00 -6°C° 0 mm 2 mps 743 mmHg 86%
    Show more